Flag for China Weather past 2 weeks in Lanzhou, Gansu, China

Now
61 °F

Sprinkles. Partly sunny.


Feels Like: 61 °F
Forecast: 59 / 74 °F
Wind: 6 mph from Northeast

Location: Lanzhou / Zhongchuan

Current Time: Aug 29, 2014 at 9:08:25 PM

Latest Report: Aug 29, 2014 at 8:00 PM


Visibility: N/A

Pressure: 30.12 "Hg

Humidity: 77%

Dew point: 54 °F

Location of LanzhouLocation

Historic Weather in Lanzhou — Graph

°F

Lanzhou temperature yesterday

Maximum temperature yesterday: 81 °F (at 5:00 PM)
Minimum temperature yesterday: 48 °F (at 7:00 AM)
Average temperature yesterday: 65 °F

Past Weeks' High & Low Weather Summary

 TemperatureHumidityPressure
High81 °F (Aug 19, 3:00 PM)100% (Aug 22, 1:00 AM)30.21 "Hg (Aug 22, 1:00 AM)
Low45 °F (Aug 15, 5:00 AM)24% (Aug 27, 3:00 PM)29.89 "Hg (Aug 16, 3:00 PM)
Average62 °F66%30.09 "Hg
* Reported Aug 14 7:00 PM — Aug 29 7:00 PM, Lanzhou, Weather by CustomWeather, © 2014

Note: Actual official high and low records may vary slightly from our data, if they occured in-between our weather recording intervals... More about our weather records

Advertising

Lanzhou weather history for previous 24 hours

 ConditionsComfort  
Time TempWeatherWind HumidityBarometerVisibility
7:00 PM
Aug 29
68 °FSprinkles. Partly sunny.13 mph53%30.07 "HgN/A
6:00 PM70 °FScattered clouds.13 mph50%30.04 "HgN/A
5:00 PM70 °FOvercast.10 mph53%30.04 "HgN/A
4:00 PM72 °FMore clouds than sun.13 mph53%30.04 "HgN/A
3:00 PM73 °FScattered clouds.8 mph53%30.04 "HgN/A
2:00 PM73 °FScattered clouds.6 mph50%30.04 "HgN/A
1:00 PM70 °FPassing clouds.3 mph57%30.04 "HgN/A
12:00 PM68 °FSunny.3 mph60%30.07 "Hg10 mi
11:00 AM66 °FSunny.1 mph64%30.09 "Hg10 mi
10:00 AM64 °FPassing clouds.3 mph64%30.09 "HgN/A
9:00 AM63 °FPassing clouds.3 mph68%30.09 "HgN/A
8:00 AM59 °FPassing clouds.3 mph77%30.09 "HgN/A
7:00 AM55 °FClear.3 mph88%30.09 "Hg10 mi
6:00 AM57 °FClear.3 mph82%30.09 "Hg10 mi
5:00 AM57 °FClear.3 mph82%30.09 "Hg10 mi
4:00 AM57 °FClear.1 mph82%30.09 "Hg10 mi
3:00 AM57 °FClear.6 mph82%30.09 "Hg10 mi
2:00 AM57 °FClear.3 mph82%30.09 "Hg10 mi
1:00 AM57 °FClear.3 mph82%30.09 "Hg10 mi
12:00 AM61 °FClear.3 mph77%30.09 "Hg10 mi
11:00 PM
Aug 28
63 °FClear.1 mph73%30.09 "Hg10 mi
10:00 PM68 °FClear.3 mph60%30.07 "Hg10 mi
9:00 PM70 °FClear.No wind57%30.07 "Hg10 mi
Weather by CustomWeather, © 2014

See weather overviewHow to use our weather pages